Regional Weather Roundup
Issued by NWS

Home | Current Version | Previous Version | Text Only | Print | Product List | Glossary On
Versions: 1 2 3 4 5 6 7 8 9 10 11 12 13 14 15 16 17 18 19 20 21 22 23 24 25 26 27 28 29 30 31 32 33 34 35 36 37 38 39 40 41 42 43 44 45 46 47 48 49 50
000
ASUS43 KDMX 030303
RWRIA

WEATHER ROUNDUP FOR IOWA
NATIONAL WEATHER SERVICE DES MOINES IA
1000 PM CDT MON MAY 02 2016

NOTE: "FAIR" INDICATES FEW OR NO CLOUDS BELOW 12,000 FEET WITH NO
SIGNIFICANT WEATHER AND/OR OBSTRUCTIONS TO VISIBILITY.

* - THESE STATIONS ARE NOT NWS STATIONS...THUS NOT UNDER NWS
QUALITY CONTROL.  THEY ALSO DO NOT REPORT WEATHER SUCH
AS PRECIPITATION OR FOG.

IAZ001>003-012>014-020>022-031>034-043>046-030400-
   NORTHWEST IOWA

CITY           SKY/WX    TMP DP  RH WIND       PRES   REMARKS
CARROLL *      PTCLDY    50  45  81 S5        30.04S
CHEROKEE *     CLEAR     48  45  87 CALM      30.03S
DENISON *      CLEAR     50  43  76 E5        30.02S
LE MARS *      PTCLDY    50  45  81 CALM      30.04R
ORANGE CITY *  PTCLDY    54  41  62 CALM      30.04R
SHELDON *      CLEAR     50  39  66 S3        30.02R
SIOUX CITY     CLOUDY    54  45  71 S5        30.03R
SPENCER        CLEAR     50  40  68 S6        30.03R
STORM LAKE *   CLEAR     55  36  47 SW5       30.04S
$$

IAZ055>058-069>071-079>083-090>094-030400-
   SOUTHWEST IOWA

CITY           SKY/WX    TMP DP  RH WIND       PRES   REMARKS
ATLANTIC *     CLEAR     48  45  87 CALM      30.05R
AUDUBON *      CLEAR     46  43  87 CALM      30.06R
CLARINDA *       N/A    N/A N/A N/A MISG        N/A
COUNCIL BLFS * CLEAR     55  41  58 SE3       30.05R
CRESTON *      PTCLDY    52  45  76 E3        30.07R
HARLAN  *      CLEAR     50  43  76 CALM      30.08R
LAMONI         PTCLDY    50  42  74 CALM      30.06R
SHENANDOAH *   CLEAR     50  46  87 S5        30.06S
$$

IAZ047>049-059>061-072>074-084-030400-
   CENTRAL IOWA

CITY           SKY/WX    TMP DP  RH WIND       PRES   REMARKS
AMES           CLEAR     46  42  86 S6        30.05R
ANKENY *       PTCLDY    46  46 100 CALM      30.05S
BOONE *        CLEAR     52  45  76 S6        30.04S
CHARITON *     CLEAR     52  45  76 CALM      30.06R
DES MOINES     PTCLDY    54  42  64 S5        30.06R
GRINNELL*      CLEAR     48  43  81 S5        30.06S
KNOXVILLE *    CLEAR     52  43  71 CALM      30.05R
MARSHALLTOWN   CLEAR     48  42  80 SW5       30.05R
NEWTON *       CLEAR     50  46  87 CALM      30.06R
PELLA *        CLEAR     50  43  78 CALM      30.07R
$$

IAZ004>006-015-016-023>025-035-036-030400-
   NORTH CENTRAL IOWA

CITY           SKY/WX    TMP DP  RH WIND       PRES   REMARKS
ALGONA *       CLEAR     54  45  71 S6        30.04R
CLARION *      CLEAR     50  45  81 S5        30.04S
ESTHERVILLE    CLEAR     50  44  80 CALM      30.03R
FORT DODGE *   CLEAR     46  37  71 CALM      30.05R
MASON CITY     PTCLDY    50  42  74 S5        30.05R
FOREST CITY *  CLOUDY    46  41  81 CALM      30.04S
WEBSTER CITY * CLEAR     52  43  71 S6        30.03R
IOWA FALLS *     N/A     50  43  76 S6        30.06R
$$

IAZ007>011-017>019-026>030-037>042-050>054-066-030400-
   NORTHEAST IOWA

CITY           SKY/WX    TMP DP  RH WIND       PRES   REMARKS
CEDAR RAPIDS   CLOUDY    47  44  90 W6        30.04R
CHARLES CITY * CLEAR     54  39  58 S3        30.05R
CLINTON *      MOCLDY    51  44  77 NW7       30.03S
DECORAH *      PTCLDY    55  37  50 CALM      30.03R
DUBUQUE        MOCLDY    48  41  76 W3        30.03S
MONTICELLO *   MOCLDY    50  43  76 CALM      30.03S
OELWEIN *      CLEAR     52  43  71 SW6       30.05R
WATERLOO       CLEAR     50  40  68 CALM      30.04R
$$

IAZ064-065-067-068-078-030400-
   EAST CENTRAL IOWA

CITY           SKY/WX    TMP DP  RH WIND       PRES   REMARKS
DAVENPORT      PTCLDY    52  43  71 NW5       30.03S
IOWA CITY      CLOUDY    49  44  83 CALM      30.05S
MT. PLEASANT * CLOUDY    53  49  86 CALM      30.05R
MUSCATINE *    CLOUDY    54  46  76 W3        30.05R
QUAD CITIES    CLOUDY    53  46  77 CALM      30.02S
$$

IAZ062-063-075>077-085>089-095>099-030400-
   SOUTHEAST IOWA

CITY           SKY/WX    TMP DP  RH WIND       PRES   REMARKS
BURLINGTON     CLOUDY    52  48  86 NW5       30.03S
FAIRFIELD *    CLOUDY    50  46  87 W7        30.05S
FORT MADISON * CLOUDY    52  48  87 NW3       30.05S
KEOKUK *       CLOUDY    50  48  93 CALM      30.04S
OSKALOOSA *      N/A     50  45  81 CALM      30.06S
OTTUMWA        PTCLDY    47  44  90 CALM      30.05S
WASHINGTON *   CLOUDY    52  50  93 W6        30.06S
$$

ABBREVIATIONS USED IN REMARKS
   TC - TEMPERATURES IN CELSIUS
  WCI - WIND CHILL INDEX
   HX - HEAT INDEX
  VSB - VISIBILITY
$$





USA.gov is the U.S. government's official web portal to all federal, state and local government web resources and services.